Weather History for Elbow Lake, MN

Change the Weather History Date:

Tuesday, January 22, 2013

  Actual Average (KFFM) Record (KFFM)
Temperature  
Mean Temperature -6 °F -  
Max Temperature 3 °F 23 °F 38 °F (1989)
Min Temperature -16 °F 2 °F -26 °F (1963)
Degree Days  
Heating Degree Days 72    
Moisture  
Dew Point -11 °F    
Average Humidity 77    
Maximum Humidity 85    
Minimum Humidity 66    
Precipitation  
Precipitation 0.00 in - - ()
Sea Level Pressure  
Sea Level Pressure 30.25 in    
Wind  
Wind Speed 4 mph (SSW)    
Max Wind Speed 10 mph    
Max Gust Speed -    
Visibility 10 miles    
Events      
Averages and records for this station are not official NWS values.
T = Trace of Precipitation, MM = Missing Value Source: NWS Daily Summary

Daily Weather History Graph

Daily Weather History Graph

Search for Another Location

Airport:

Trip Planner

Search our weather history database for the weather conditions in past years. The results will help you decide how hot, cold, wet, or windy it might be!

Date:

Astronomy

Jan. 22, 2013 Rise Set
Actual Time 7:56 AM CST 5:15 PM CST
Civil Twilight 7:23 AM CST 5:48 PM CST
Nautical Twilight 6:47 AM CST 6:24 PM CST
Astronomical Twilight 6:11 AM CST 7:00 PM CST
Moon 1:36 PM CST (1/22) 4:21 AM CST (1/22)
Length of Visible Light 10h 24m
Length of Day
9h 18m
Waxing Gibbous, 83% of the Moon is Illuminated
Jan 22
Waxing Gibbous
Jan 26
Full
Feb 3
Last Quarter
Feb 10
New
Feb 17
First Quarter

Hourly Weather History & Observations

Time (CST) Temp. Windchill Dew Point Humidity Pressure Visibility Wind Dir Wind Speed Gust Speed Precip Events Conditions
12:15 AM -13.0 °F -25.1 °F -18.4 °F 77% 30.28 in 10.0 mi WNW 4.6 mph - N/A   Clear
12:35 AM -14.8 °F -24.8 °F -18.4 °F 84% 30.28 in 10.0 mi WNW 3.5 mph - N/A   Clear
1:15 AM -14.8 °F -29.1 °F -18.4 °F 84% 30.28 in 10.0 mi West 5.8 mph - N/A   Clear
1:35 AM -14.8 °F - -18.4 °F 84% 30.28 in 10.0 mi Calm Calm - N/A   Clear
1:55 AM -14.8 °F -24.8 °F -18.4 °F 84% 30.28 in 10.0 mi West 3.5 mph - N/A   Clear
2:15 AM -13.0 °F -22.7 °F -18.4 °F 77% 30.28 in 10.0 mi West 3.5 mph - N/A   Clear
2:35 AM -14.8 °F -27.2 °F -18.4 °F 84% 30.29 in 10.0 mi West 4.6 mph - N/A   Clear
2:55 AM -16.6 °F -26.8 °F -20.2 °F 84% 30.30 in 10.0 mi West 3.5 mph - N/A   Clear
3:15 AM -14.8 °F -24.8 °F -18.4 °F 84% 30.29 in 10.0 mi WNW 3.5 mph - N/A   Clear
3:35 AM -14.8 °F -27.2 °F -18.4 °F 84% 30.29 in 10.0 mi WNW 4.6 mph - N/A   Clear
4:15 AM -14.8 °F -27.2 °F -20.2 °F 77% 30.29 in 10.0 mi NW 4.6 mph - N/A   Clear
4:35 AM -14.8 °F -24.8 °F -18.4 °F 84% 30.29 in 10.0 mi NNW 3.5 mph - N/A   Clear
5:15 AM -14.8 °F - -18.4 °F 84% 30.29 in 10.0 mi Calm Calm - N/A   Clear
5:35 AM -14.8 °F -24.8 °F -18.4 °F 84% 30.30 in 10.0 mi NW 3.5 mph - N/A   Clear
5:55 AM -14.8 °F - -20.2 °F 77% 30.31 in 10.0 mi Calm Calm - N/A   Clear
6:15 AM -14.8 °F - -20.2 °F 77% 30.30 in 10.0 mi Calm Calm - N/A   Clear
6:35 AM -14.8 °F - -18.4 °F 84% 30.30 in 10.0 mi Calm Calm - N/A   Clear
7:15 AM -16.6 °F - -22.0 °F 76% 30.28 in 10.0 mi Calm Calm - N/A   Clear
7:35 AM -16.6 °F - -22.0 °F 76% 30.28 in 10.0 mi Calm Calm - N/A   Clear
7:55 AM -16.6 °F -29.3 °F -20.2 °F 84% 30.28 in 10.0 mi South 4.6 mph - N/A   Clear
8:15 AM -16.6 °F -26.8 °F -22.0 °F 76% 30.29 in 10.0 mi SSW 3.5 mph - N/A   Clear
8:35 AM -14.8 °F - -20.2 °F 77% 30.29 in 10.0 mi Calm Calm - N/A   Clear
8:55 AM -14.8 °F -24.8 °F -20.2 °F 77% 30.30 in 10.0 mi South 3.5 mph - N/A   Clear
9:15 AM -14.8 °F -24.8 °F -18.4 °F 84% 30.30 in 10.0 mi South 3.5 mph - N/A   Clear
9:35 AM -14.8 °F -24.8 °F -18.4 °F 84% 30.30 in 10.0 mi South 3.5 mph - N/A   Clear
9:55 AM -13.0 °F - -16.6 °F 84% 30.31 in 10.0 mi Calm Calm - N/A   Clear
10:15 AM -11.2 °F -23.0 °F -16.6 °F 77% 30.30 in 10.0 mi South 4.6 mph - N/A   Clear
10:35 AM -9.4 °F -22.7 °F -14.8 °F 77% 30.31 in 10.0 mi SSW 5.8 mph - N/A   Clear
10:55 AM -7.6 °F -20.6 °F -14.8 °F 71% 30.32 in 10.0 mi SW 5.8 mph - N/A   Clear
11:15 AM -7.6 °F -18.8 °F -13.0 °F 77% 30.31 in 10.0 mi SW 4.6 mph - N/A   Clear
11:35 AM -7.6 °F -22.1 °F -13.0 °F 77% 30.31 in 10.0 mi SSW 6.9 mph - N/A   Clear
11:55 AM -5.8 °F -18.4 °F -13.0 °F 71% 30.30 in 10.0 mi SSW 5.8 mph - N/A   Clear
12:15 PM -5.8 °F -18.4 °F -13.0 °F 71% 30.30 in 10.0 mi SSW 5.8 mph - N/A   Scattered Clouds
12:35 PM -4.0 °F -16.3 °F -11.2 °F 71% 30.29 in 10.0 mi SW 5.8 mph - N/A   Scattered Clouds
12:55 PM -4.0 °F -14.6 °F -9.4 °F 78% 30.28 in 10.0 mi SSW 4.6 mph - N/A   Clear
1:15 PM -2.2 °F - -9.4 °F 71% 30.27 in 10.0 mi Calm Calm - N/A   Clear
1:35 PM -2.2 °F -10.4 °F -9.4 °F 71% 30.27 in 10.0 mi SW 3.5 mph - N/A   Clear
1:55 PM -0.4 °F -8.3 °F -7.6 °F 72% 30.26 in 10.0 mi SW 3.5 mph - N/A   Clear
2:15 PM -0.4 °F -10.4 °F -7.6 °F 72% 30.26 in 10.0 mi SSW 4.6 mph - N/A   Clear
2:35 PM -0.4 °F -13.4 °F -7.6 °F 72% 30.25 in 10.0 mi SSW 6.9 mph - N/A   Scattered Clouds
2:55 PM 1.4 °F -12.5 °F -7.6 °F 66% 30.25 in 10.0 mi SW 8.1 mph - N/A   Clear
3:15 PM 1.4 °F -8.3 °F -7.6 °F 66% 30.26 in 10.0 mi SW 4.6 mph - N/A   Clear
3:35 PM 1.4 °F -9.9 °F -5.8 °F 72% 30.25 in 10.0 mi SW 5.8 mph - N/A   Scattered Clouds
3:55 PM 1.4 °F -11.3 °F -5.8 °F 72% 30.24 in 10.0 mi SSW 6.9 mph - N/A   Mostly Cloudy
4:15 PM 1.4 °F -12.5 °F -5.8 °F 72% 30.23 in 10.0 mi SSW 8.1 mph - N/A   Overcast
4:35 PM 1.4 °F -8.3 °F -5.8 °F 72% 30.22 in 10.0 mi South 4.6 mph - N/A   Overcast
4:55 PM 1.4 °F -6.2 °F -5.8 °F 72% 30.23 in 10.0 mi SSE 3.5 mph - N/A   Overcast
5:15 PM 1.4 °F -8.3 °F -5.8 °F 72% 30.21 in 10.0 mi South 4.6 mph - N/A   Overcast
5:35 PM 1.4 °F -9.9 °F -5.8 °F 72% 30.22 in 10.0 mi South 5.8 mph - N/A   Overcast
5:55 PM 3.2 °F -6.2 °F -4.0 °F 72% 30.21 in 10.0 mi South 4.6 mph - N/A   Overcast
6:15 PM 3.2 °F -6.2 °F -4.0 °F 72% 30.22 in 10.0 mi South 4.6 mph - N/A   Overcast
6:35 PM 3.2 °F -7.8 °F -4.0 °F 72% 30.22 in 10.0 mi South 5.8 mph - N/A   Overcast
6:55 PM 3.2 °F -10.3 °F -4.0 °F 72% 30.21 in 10.0 mi South 8.1 mph - N/A   Overcast
7:15 PM 3.2 °F -10.3 °F -4.0 °F 72% 30.20 in 10.0 mi South 8.1 mph - N/A   Overcast
7:35 PM 3.2 °F -10.3 °F -4.0 °F 72% 30.19 in 10.0 mi South 8.1 mph - N/A   Overcast
7:55 PM 3.2 °F -11.3 °F -4.0 °F 72% 30.18 in 10.0 mi SSE 9.2 mph - N/A   Overcast
8:15 PM 3.2 °F -12.2 °F -4.0 °F 72% 30.18 in 10.0 mi South 10.4 mph - N/A   Overcast
8:35 PM 3.2 °F -10.3 °F -2.2 °F 78% 30.17 in 10.0 mi SSE 8.1 mph - N/A   Overcast
8:55 PM 3.2 °F -11.3 °F -4.0 °F 72% 30.17 in 10.0 mi SSE 9.2 mph - N/A   Overcast
9:15 PM 3.2 °F -11.3 °F -2.2 °F 78% 30.17 in 10.0 mi SSE 9.2 mph - N/A   Overcast
9:35 PM 3.2 °F -11.3 °F -2.2 °F 78% 30.17 in 10.0 mi South 9.2 mph - N/A   Overcast
9:55 PM 3.2 °F -11.3 °F -2.2 °F 78% 30.16 in 10.0 mi SSE 9.2 mph - N/A   Overcast
10:15 PM 3.2 °F -10.3 °F -2.2 °F 78% 30.16 in 10.0 mi South 8.1 mph - N/A   Overcast
10:35 PM 3.2 °F -10.3 °F -2.2 °F 78% 30.16 in 10.0 mi South 8.1 mph - N/A   Overcast
10:55 PM 3.2 °F -10.3 °F -0.4 °F 85% 30.16 in 10.0 mi South 8.1 mph - N/A   Overcast
11:15 PM 3.2 °F -11.3 °F -0.4 °F 85% 30.16 in 10.0 mi South 9.2 mph - N/A   Overcast
11:35 PM 3.2 °F -10.3 °F -0.4 °F 85% 30.16 in 10.0 mi South 8.1 mph - N/A   Overcast
11:55 PM 3.2 °F -11.3 °F -0.4 °F 85% 30.16 in 10.0 mi South 9.2 mph - N/A   Overcast